GW3217 Weather Reports


Display with metric or nautical units.
time (UTC)temp
F
wind
direction
speed
MPH
gust
MPH
rain 1hr
in
rain 24hr
in
rain mn
in
humidity
%
barometer
mb
20260510091318 48 217 0.0 0.0 0.00 0.00 0.00 99 1013.5
20260510090814 48 201 0.0 0.0 0.00 0.00 0.00 99 1013.8
20260510090311 48 202 0.0 0.0 0.00 0.00 0.00 99 1013.8
20260510085807 49 221 0.0 0.0 0.00 0.00 0.00 99 1013.9
20260510085307 49 221 0.0 0.0 0.00 0.00 0.00 99 1013.9
20260510084803 49 207 0.0 0.0 0.00 0.00 0.00 99 1013.8
20260510084259 49 201 0.0 0.0 0.00 0.00 0.00 99 1014.1
20260510083756 49 209 0.0 0.0 0.00 0.00 0.00 99 1013.8
20260510083253 49 188 0.0 0.0 0.00 0.00 0.00 99 1013.9
20260510082749 49 186 0.0 0.0 0.00 0.00 0.00 99 1013.8
20260510082245 49 196 0.0 0.0 0.00 0.00 0.00 99 1014.1
20260510081744 49 215 0.0 0.0 0.00 0.00 0.00 99 1014.0
20260510081241 49 205 0.0 0.0 0.00 0.00 0.00 99 1013.9
20260510080736 49 231 0.0 0.0 0.00 0.00 0.00 99 1014.2
20260510080232 49 249 0.0 0.0 0.00 0.00 0.00 99 1014.3
20260510075729 49 247 0.0 0.0 0.00 0.00 0.00 99 1014.3
20260510075227 49 247 0.0 0.0 0.00 0.00 0.00 99 1014.3
20260510074724 49 232 0.0 0.0 0.00 0.00 0.00 99 1014.1
20260510074220 49 247 0.0 0.0 0.00 0.00 0.00 99 1014.1
20260510073716 49 247 0.0 0.0 0.00 0.00 0.00 99 1014.1
20260510073212 49 251 0.0 0.0 0.00 0.00 0.00 99 1014.0
20260510072708 49 252 0.0 1.0 0.00 0.00 0.00 99 1014.2
20260510072205 49 263 1.0 2.0 0.00 0.00 0.00 99 1013.9
20260510071701 49 242 0.0 0.0 0.00 0.00 0.00 99 1013.8
20260510071158 49 246 0.0 0.0 0.00 0.00 0.00 99 1013.6
20260510070656 49 221 0.0 0.0 0.00 0.00 0.00 99 1013.5
20260510070153 49 217 0.0 0.0 0.00 0.00 0.00 99 1013.6
20260510065649 49 225 0.0 0.0 0.00 0.00 0.00 99 1013.5
20260510065145 49 217 0.0 0.0 0.00 0.00 0.00 99 1013.4
20260510064642 49 220 0.0 0.0 0.00 0.00 0.00 99 1013.7
20260510064138 49 238 0.0 0.0 0.00 0.00 0.00 99 1013.8
20260510063636 49 238 0.0 0.0 0.00 0.00 0.00 99 1013.8
20260510063132 49 238 0.0 0.0 0.00 0.00 0.00 99 1013.6
20260510062628 49 238 0.0 0.0 0.00 0.00 0.00 99 1013.9
20260510062124 49 238 0.0 0.0 0.00 0.00 0.00 99 1013.8
20260510061620 49 238 0.0 0.0 0.00 0.00 0.00 99 1014.0
20260510061118 49 233 0.0 0.0 0.00 0.00 0.00 99 1013.9
20260510060613 49 222 0.0 0.0 0.00 0.00 0.00 99 1013.8
20260510060110 49 222 0.0 0.0 0.00 0.00 0.00 99 1013.7
20260510055606 49 222 0.0 0.0 0.00 0.00 0.00 99 1013.7
20260510055104 49 226 0.0 0.0 0.00 0.00 0.00 99 1013.4
20260510054600 50 196 0.0 0.0 0.00 0.00 0.00 99 1013.6
20260510054055 49 211 0.0 0.0 0.00 0.00 0.00 99 1013.5
20260510053555 49 241 0.0 0.0 0.00 0.00 0.00 99 1013.5
20260510053052 49 279 0.0 0.0 0.00 0.00 0.00 99 1013.5
20260510052542 49 9 0.0 0.0 0.00 0.00 0.00 99 1013.4
20260510052038 49 225 0.0 0.0 0.00 0.00 0.00 99 1013.3
20260510051534 50 266 0.0 0.0 0.00 0.00 0.00 99 1013.4
20260510051031 49 228 0.0 0.0 0.00 0.00 0.00 99 1013.6
20260510050528 49 226 0.0 0.0 0.00 0.00 0.00 99 1013.4
20260510050025 49 236 0.0 0.0 0.00 0.00 0.00 99 1013.7
20260510045522 49 189 0.0 0.0 0.00 0.00 0.00 99 1013.7
20260510045018 49 246 0.0 0.0 0.00 0.00 0.00 99 1013.5
20260510044515 49 208 0.0 0.0 0.00 0.00 0.00 99 1013.5
20260510044014 49 242 0.0 0.0 0.00 0.00 0.00 99 1013.6
20260510043513 49 201 0.0 0.0 0.00 0.00 0.00 99 1013.6
20260510043009 50 215 0.0 0.0 0.00 0.00 0.00 99 1013.9
20260510042503 50 213 0.0 0.0 0.00 0.00 0.00 99 1013.9
20260510041959 50 211 0.0 0.0 0.00 0.00 0.00 99 1013.7
20260510041456 50 241 0.0 0.0 0.00 0.00 0.00 99 1013.6
20260510040954 50 216 0.0 0.0 0.00 0.00 0.00 99 1013.5
20260510040450 50 205 0.0 0.0 0.00 0.00 0.00 99 1013.6
20260510035946 50 210 0.0 0.0 0.00 0.34 0.34 99 1013.6
20260510035443 50 92 0.0 0.0 0.00 0.34 0.34 99 1013.4
20260510034942 50 215 0.0 0.0 0.00 0.34 0.34 99 1013.4
20260510034441 50 224 0.0 0.0 0.00 0.34 0.34 99 1013.1
20260510033937 50 231 0.0 0.0 0.00 0.34 0.34 99 1013.1
20260510033433 50 211 0.0 0.0 0.00 0.34 0.34 99 1013.2
20260510032930 50 223 0.0 0.0 0.00 0.34 0.34 99 1013.4
20260510032427 50 198 0.0 0.0 0.00 0.34 0.34 99 1013.4
20260510031922 50 224 0.0 0.0 0.00 0.34 0.34 99 1013.6
20260510031418 50 211 0.0 0.0 0.00 0.34 0.34 99 1013.5
20260510030913 50 226 0.0 0.0 0.00 0.34 0.34 99 1013.3
20260510030409 50 216 0.0 0.0 0.00 0.34 0.34 99 1013.5
20260510025907 50 161 0.0 0.0 0.00 0.34 0.34 99 1013.6
20260510025404 50 259 0.0 0.0 0.00 0.34 0.34 99 1013.6
20260510024901 50 209 0.0 0.0 0.00 0.34 0.34 99 1013.6
20260510024357 50 221 0.0 0.0 0.00 0.34 0.34 99 1013.6
20260510023853 50 207 0.0 0.0 0.00 0.34 0.34 99 1013.7
20260510023351 50 210 0.0 0.0 0.00 0.34 0.34 99 1013.7
20260510022848 50 226 0.0 0.0 0.00 0.34 0.34 99 1013.7
20260510022347 50 244 0.0 0.0 0.00 0.34 0.34 99 1013.7
20260510021845 50 248 0.0 0.0 0.00 0.34 0.34 99 1013.7
20260510021344 50 248 0.0 0.0 0.00 0.34 0.34 99 1013.5
20260510020840 50 248 0.0 0.0 0.00 0.34 0.34 99 1013.6
20260510020335 50 225 0.0 0.0 0.00 0.34 0.34 99 1013.5
20260510015831 50 225 0.0 0.0 0.00 0.34 0.34 99 1013.4
20260510015327 50 225 0.0 0.0 0.00 0.34 0.34 99 1013.4
20260510014822 50 246 0.0 0.0 0.00 0.34 0.34 99 1013.4
20260510014320 50 237 0.0 0.0 0.00 0.34 0.34 99 1013.6
20260510013816 50 199 0.0 0.0 0.00 0.34 0.34 99 1013.4
20260510013312 50 219 0.0 0.0 0.00 0.34 0.34 99 1013.2
20260510012807 50 215 0.0 0.0 0.00 0.34 0.34 99 1013.2
20260510012307 50 215 0.0 0.0 0.00 0.34 0.34 99 1013.3
20260510011801 50 243 0.0 0.0 0.00 0.34 0.34 99 1013.3
20260510011257 50 246 0.0 0.0 0.00 0.34 0.34 99 1013.0
20260510010754 49 211 0.0 0.0 0.00 0.34 0.34 99 1013.1
20260510010250 49 210 0.0 0.0 0.00 0.34 0.34 99 1013.0
20260510005748 49 213 0.0 0.0 0.00 0.34 0.34 99 1012.9
20260510005244 50 213 0.0 0.0 0.00 0.34 0.34 99 1013.0
20260510004742 50 213 0.0 0.0 0.00 0.34 0.34 99 1013.0
20260510004239 50 238 0.0 0.0 0.00 0.34 0.34 99 1013.0
20260510003736 50 220 0.0 0.0 0.00 0.34 0.34 99 1012.9
20260510003233 50 209 0.0 0.0 0.00 0.34 0.34 99 1012.8
20260510002731 50 203 0.0 0.0 0.00 0.34 0.34 99 1013.0
20260510002229 50 215 0.0 0.0 0.00 0.34 0.34 99 1012.6
20260510001725 50 241 0.0 0.0 0.00 0.34 0.34 99 1012.6
20260510001224 50 238 0.0 0.0 0.00 0.34 0.34 99 1012.6
20260510000720 50 210 0.0 0.0 0.00 0.34 0.34 99 1012.5
20260510000219 50 266 0.0 0.0 0.00 0.34 0.34 99 1012.4
20260509235714 50 215 0.0 0.0 0.00 0.34 0.34 99 1012.6
20260509235210 50 213 0.0 0.0 0.00 0.34 0.34 99 1012.6
20260509234706 51 209 0.0 0.0 0.00 0.34 0.34 99 1012.5
20260509234204 51 301 0.0 0.0 0.00 0.34 0.34 99 1012.4
20260509233702 51 229 0.0 0.0 0.00 0.34 0.34 99 1012.8
20260509233159 51 224 0.0 0.0 0.00 0.34 0.34 99 1012.6
20260509232655 51 214 0.0 0.0 0.00 0.34 0.34 99 1012.5
20260509232152 51 203 0.0 0.0 0.00 0.34 0.34 99 1012.6
20260509231649 51 225 0.0 0.0 0.00 0.34 0.34 99 1012.7
20260509231146 51 166 1.0 1.0 0.00 0.34 0.34 99 1012.9
20260509230643 51 217 0.0 1.0 0.00 0.34 0.34 99 1012.6
20260509230140 51 219 0.0 0.0 0.00 0.34 0.34 99 1012.7
20260509225636 51 159 0.0 0.0 0.00 0.34 0.34 99 1012.6
20260509225131 51 40 0.0 1.0 0.00 0.34 0.34 99 1012.9
20260509224627 51 184 0.0 0.0 0.00 0.34 0.34 99 1012.7
20260509224124 51 209 0.0 0.0 0.00 0.34 0.34 99 1012.7
20260509223621 51 220 0.0 0.0 0.07 0.34 0.34 99 1012.7
20260509223119 51 216 0.0 0.0 0.07 0.34 0.34 99 1012.6
20260509222614 51 223 0.0 0.0 0.05 0.33 0.33 99 1012.8
20260509222110 51 203 0.0 0.0 0.05 0.33 0.33 99 1012.9
20260509221606 51 241 0.0 0.0 0.05 0.33 0.33 99 1013.0
20260509221102 51 195 0.0 0.0 0.00 0.32 0.32 99 1012.7
20260509220558 51 71 0.0 0.0 0.00 0.32 0.32 99 1013.0
20260509220055 50 208 0.0 0.0 0.00 0.32 0.32 99 1013.2
20260509215550 51 208 0.0 0.0 0.07 0.32 0.32 99 1013.2
20260509215048 51 206 0.0 0.0 0.07 0.32 0.32 99 1013.4
20260509214545 51 227 0.0 0.0 0.05 0.31 0.31 99 1013.4
20260509214042 51 218 0.0 0.0 0.05 0.31 0.31 99 1013.3
20260509213538 51 166 0.0 0.0 0.00 0.30 0.30 99 1013.5
20260509213035 51 121 0.0 0.0 0.07 0.30 0.30 99 1013.3
20260509212532 51 213 0.0 0.0 0.14 0.30 0.30 99 1013.5
20260509212029 51 175 0.0 0.0 0.19 0.29 0.29 99 1013.1
20260509211524 51 222 0.0 0.0 0.17 0.28 0.28 99 1013.2
20260509211021 51 98 2.0 2.0 0.17 0.26 0.26 99 1013.3
20260509210518 51 234 0.0 0.0 0.31 0.25 0.25 99 1013.5
20260509210014 51 264 0.0 0.0 0.24 0.23 0.23 99 1013.5
20260509205509 51 240 0.0 0.0 0.12 0.20 0.20 99 1013.8
20260509205005 51 245 0.0 0.0 0.14 0.19 0.19 99 1013.4
20260509204501 51 245 0.0 0.0 0.12 0.18 0.18 99 1013.3
20260509203957 51 242 0.0 0.0 0.05 0.17 0.17 99 1013.4
20260509203453 51 253 4.0 4.0 0.07 0.16 0.16 99 1013.4
20260509202951 51 226 1.0 1.0 0.07 0.16 0.16 99 1013.3
20260509202447 52 232 2.0 2.0 0.00 0.15 0.15 99 1013.1
20260509201942 52 243 0.0 0.0 0.05 0.15 0.15 99 1013.4
20260509201437 52 246 0.0 0.0 0.05 0.15 0.15 99 1013.4
20260509200935 52 250 0.0 0.0 0.00 0.14 0.14 99 1013.5
20260509200434 52 251 0.0 0.0 0.00 0.14 0.14 99 1013.5
20260509195931 52 246 0.0 0.0 0.00 0.14 0.14 99 1013.6
20260509195427 53 245 0.0 0.0 0.07 0.14 0.14 99 1013.5
20260509194927 52 250 0.0 0.0 0.07 0.14 0.14 99 1013.6
20260509194422 52 253 0.0 0.0 0.00 0.13 0.13 99 1013.7
20260509193920 52 255 0.0 0.0 0.05 0.13 0.13 99 1013.5
20260509193419 52 259 2.0 2.0 0.05 0.13 0.13 99 1013.5
20260509192916 52 261 2.0 2.0 0.07 0.12 0.12 98 1013.8
20260509192412 52 244 0.0 1.0 0.07 0.12 0.12 98 1013.9
20260509191907 52 251 1.0 3.0 0.05 0.11 0.11 98 1013.9
20260509191403 53 266 4.0 4.0 0.12 0.11 0.11 99 1014.2
20260509190859 53 249 0.0 0.0 0.12 0.10 0.10 99 1014.1
20260509190356 53 245 1.0 1.0 0.12 0.09 0.09 98 1014.3
20260509185854 53 258 2.0 3.0 0.12 0.08 0.08 98 1014.0
20260509185350 54 282 0.0 0.0 0.05 0.07 0.07 97 1013.9
20260509184848 55 244 0.0 0.0 0.07 0.06 0.06 96 1013.7
20260509184344 55 246 0.0 0.0 0.14 0.06 0.06 94 1013.8
20260509183841 55 252 0.0 0.0 0.07 0.05 0.05 92 1013.6
20260509183336 56 226 0.0 0.0 0.00 0.04 0.04 90 1013.8
20260509182832 56 245 0.0 0.0 0.00 0.04 0.04 88 1013.5
20260509182329 56 244 0.0 0.0 0.00 0.04 0.04 89 1013.7
20260509181826 56 242 0.0 0.0 0.00 0.04 0.04 88 1013.3
20260509181318 56 228 0.0 0.0 0.00 0.04 0.04 88 1013.4
20260509180815 56 263 0.0 0.0 0.00 0.04 0.04 87 1013.4
20260509180311 57 263 0.0 0.0 0.00 0.04 0.04 88 1013.4
20260509175808 56 243 0.0 0.0 0.00 0.04 0.04 89 1013.6
20260509175259 56 217 0.0 0.0 0.00 0.04 0.04 91 1013.4
20260509174755 55 217 0.0 0.0 0.00 0.04 0.04 91 1013.3
20260509174250 55 235 0.0 0.0 0.00 0.04 0.04 91 1013.4
20260509173747 55 244 0.0 0.0 0.00 0.04 0.04 92 1013.3
20260509173242 55 232 0.0 0.0 0.00 0.04 0.04 91 1013.4
20260509172738 55 200 0.0 0.0 0.00 0.04 0.04 92 1013.8
20260509172235 55 200 0.0 0.0 0.00 0.04 0.04 92 1013.4
20260509171731 55 241 0.0 0.0 0.00 0.04 0.04 91 1013.2
20260509171227 55 233 0.0 0.0 0.00 0.04 0.04 91 1013.3
20260509170724 55 218 0.0 0.0 0.00 0.04 0.04 91 1013.6
20260509170220 55 210 0.0 0.0 0.00 0.04 0.04 91 1013.7
20260509165719 56 337 1.0 1.0 0.00 0.04 0.04 91 1014.0
20260509165214 56 190 0.0 0.0 0.00 0.04 0.04 92 1013.9
20260509164710 56 12 1.0 2.0 0.00 0.04 0.04 91 1014.0
20260509164206 55 190 0.0 0.0 0.00 0.04 0.04 92 1014.0
20260509163704 55 248 0.0 0.0 0.00 0.04 0.04 94 1014.2
20260509163200 55 259 0.0 0.0 0.00 0.04 0.04 94 1014.2
20260509162657 54 223 0.0 0.0 0.00 0.04 0.04 95 1014.1
20260509162153 53 218 0.0 0.0 0.00 0.04 0.04 95 1014.3
20260509161649 53 222 0.0 0.0 0.00 0.04 0.04 95 1014.4
20260509161144 53 204 0.0 0.0 0.00 0.04 0.04 95 1014.6
20260509160640 53 236 0.0 0.0 0.00 0.04 0.04 96 1014.3
20260509160136 53 242 0.0 0.0 0.00 0.04 0.04 96 1014.5
20260509155632 53 126 0.0 0.0 0.00 0.04 0.04 95 1014.8
20260509155129 53 238 0.0 0.0 0.05 0.04 0.04 95 1014.8
20260509154624 52 247 0.0 0.0 0.05 0.04 0.04 95 1014.5
20260509154122 52 173 1.0 1.0 0.00 0.03 0.03 95 1014.8
20260509153619 52 237 0.0 0.0 0.00 0.03 0.03 95 1014.6
20260509153116 52 236 0.0 0.0 0.00 0.03 0.03 95 1014.6
20260509152611 52 211 0.0 0.0 0.00 0.03 0.03 95 1014.4
20260509152109 52 238 0.0 0.0 0.00 0.03 0.03 94 1014.6
20260509151605 51 230 0.0 0.0 0.00 0.03 0.03 94 1014.8
20260509151103 51 197 0.0 0.0 0.00 0.03 0.03 93 1014.9
20260509150600 52 229 0.0 0.0 0.00 0.03 0.03 93 1014.9
20260509150058 52 212 0.0 0.0 0.00 0.03 0.03 93 1014.5
20260509145553 52 191 1.0 2.0 0.00 0.03 0.03 92 1014.5
20260509145049 52 230 0.0 0.0 0.00 0.03 0.03 92 1014.8
20260509144546 51 47 1.0 2.0 0.00 0.03 0.03 93 1014.8
20260509144043 51 230 0.0 0.0 0.00 0.03 0.03 93 1014.6
20260509143540 51 220 0.0 0.0 0.00 0.03 0.03 93 1014.6
20260509143032 51 197 2.0 3.0 0.00 0.03 0.03 93 1014.4
20260509142527 51 213 0.0 0.0 0.00 0.03 0.03 93 1014.6
20260509142023 51 226 2.0 2.0 0.00 0.03 0.03 93 1014.4
20260509141520 50 137 1.0 1.0 0.00 0.03 0.03 94 1014.6
20260509141017 50 317 1.0 2.0 0.00 0.03 0.03 95 1014.2
20260509140514 49 205 0.0 0.0 0.00 0.03 0.03 96 1014.6
20260509140012 50 229 0.0 0.0 0.00 0.03 0.03 96 1014.9
20260509135508 49 211 0.0 0.0 0.00 0.03 0.03 96 1014.9
20260509135006 49 244 0.0 0.0 0.00 0.03 0.03 97 1015.2
20260509134503 49 230 0.0 0.0 0.00 0.03 0.03 97 1014.4
20260509134001 49 242 1.0 2.0 0.00 0.03 0.03 97 1014.4
20260509133457 49 181 0.0 0.0 0.00 0.03 0.03 97 1014.4
20260509132955 48 191 0.0 0.0 0.00 0.03 0.03 96 1014.9
20260509132453 49 209 1.0 2.0 0.00 0.03 0.03 96 1014.6
20260509131950 48 34 1.0 2.0 0.00 0.03 0.03 96 1014.8
20260509131447 48 95 2.0 2.0 0.00 0.03 0.03 96 1015.0
20260509130943 48 196 0.0 1.0 0.00 0.03 0.03 96 1015.0
20260509130439 48 169 1.0 2.0 0.00 0.03 0.03 96 1015.1
20260509125936 48 244 0.0 0.0 0.00 0.03 0.03 96 1015.0
20260509125433 47 240 1.0 1.0 0.00 0.03 0.03 96 1015.3
20260509124929 48 240 0.0 0.0 0.00 0.03 0.03 96 1015.0
20260509124426 48 183 0.0 2.0 0.00 0.03 0.03 96 1014.9
20260509123923 47 74 1.0 1.0 0.00 0.03 0.03 96 1014.6
20260509123421 47 239 1.0 1.0 0.00 0.03 0.03 96 1014.6
20260509122916 47 221 1.0 2.0 0.00 0.03 0.03 97 1014.9
20260509122413 46 219 0.0 0.0 0.00 0.03 0.03 97 1015.0
20260509121910 46 177 0.0 0.0 0.07 0.03 0.03 97 1015.3
20260509121407 46 214 0.0 0.0 0.07 0.03 0.03 97 1015.2
20260509120905 46 204 1.0 1.0 0.07 0.03 0.03 97 1015.3
20260509120403 46 246 0.0 0.0 0.00 0.02 0.02 97 1015.1
20260509115901 46 228 0.0 0.0 0.00 0.02 0.02 97 1015.3
20260509115357 45 236 0.0 0.0 0.00 0.02 0.02 97 1015.2
20260509114855 45 235 0.0 0.0 0.00 0.02 0.02 98 1015.3
20260509114354 45 218 0.0 0.0 0.00 0.02 0.02 97 1015.6
20260509113852 45 275 0.0 0.0 0.00 0.02 0.02 98 1015.1
20260509113349 45 221 0.0 0.0 0.00 0.02 0.02 98 1015.1
20260509112846 45 238 0.0 0.0 0.00 0.02 0.02 98 1015.2
20260509112343 45 254 0.0 0.0 0.00 0.02 0.02 98 1015.3
20260509111841 45 207 0.0 0.0 0.00 0.02 0.02 98 1015.4
20260509111337 45 217 0.0 0.0 0.00 0.02 0.02 99 1015.2
20260509110835 45 232 0.0 0.0 0.00 0.02 0.02 99 1015.2
20260509110331 45 211 0.0 0.0 0.00 0.02 0.02 99 1015.2
20260509105829 45 209 0.0 0.0 0.00 0.02 0.02 99 1015.3
20260509105327 45 226 0.0 0.0 0.00 0.02 0.02 99 1015.1
20260509104823 45 216 0.0 0.0 0.00 0.02 0.02 99 1015.2
20260509104320 45 184 0.0 0.0 0.00 0.02 0.02 99 1015.0
20260509103818 44 218 0.0 0.0 0.00 0.02 0.02 99 1014.8
20260509103315 44 216 0.0 0.0 0.00 0.02 0.02 99 1015.1
20260509102814 44 210 0.0 0.0 0.00 0.02 0.02 99 1014.9
20260509102310 44 238 0.0 0.0 0.00 0.02 0.02 99 1015.0
20260509101806 44 239 0.0 0.0 0.00 0.02 0.02 99 1015.3
20260509101303 44 214 0.0 0.0 0.00 0.02 0.02 99 1015.2
20260509100800 44 212 0.0 0.0 0.00 0.02 0.02 99 1015.4
20260509100258 44 226 0.0 0.0 0.00 0.02 0.02 99 1015.4
20260509095754 44 202 0.0 0.0 0.00 0.02 0.02 99 1015.3
20260509095251 45 191 0.0 0.0 0.00 0.02 0.02 99 1015.2
20260509094748 45 197 0.0 0.0 0.00 0.02 0.02 99 1015.3
20260509094245 45 271 0.0 0.0 0.00 0.02 0.02 99 1014.9
20260509093743 45 236 0.0 0.0 0.00 0.02 0.02 99 1015.0
20260509093240 45 236 0.0 0.0 0.00 0.02 0.02 99 1015.0
20260509092738 45 183 0.0 0.0 0.00 0.02 0.02 99 1015.0
20260509092236 45 196 0.0 0.0 0.00 0.02 0.02 99 1015.0